TimeEDT,TemperatureF,Dew PointF,Humidity,Sea Level PressureIn,VisibilityMPH,Wind Direction,Wind SpeedMPH,Gust SpeedMPH,PrecipitationIn,Events,Conditions,WindDirDegrees,DateUTC
12:53 AM,37.0,36.0,96,30.06,10.0,Calm,Calm,-,N/A,,Clear,0,2013-05-15 04:53:00
1:53 AM,35.1,33.1,92,30.05,10.0,Calm,Calm,-,N/A,,Clear,0,2013-05-15 05:53:00
2:53 AM,33.1,33.1,100,30.05,10.0,Calm,Calm,-,N/A,,Clear,0,2013-05-15 06:53:00
3:53 AM,33.1,33.1,100,30.06,10.0,Calm,Calm,-,N/A,,Clear,0,2013-05-15 07:53:00
4:53 AM,33.1,32.0,96,30.06,10.0,Calm,Calm,-,N/A,,Clear,0,2013-05-15 08:53:00
5:53 AM,30.9,30.9,100,30.06,8.0,Calm,Calm,-,N/A,,Clear,0,2013-05-15 09:53:00
6:53 AM,39.9,37.9,93,30.06,10.0,Calm,Calm,-,N/A,,Clear,0,2013-05-15 10:53:00
7:53 AM,50.0,37.9,63,30.05,10.0,Calm,Calm,-,N/A,,Clear,0,2013-05-15 11:53:00
8:53 AM,57.9,33.1,39,30.04,10.0,Calm,Calm,-,N/A,,Clear,0,2013-05-15 12:53:00
9:53 AM,60.1,30.9,33,30.01,10.0,South,8.1,-,N/A,,Clear,170,2013-05-15 13:53:00
10:53 AM,63.0,34.0,34,30.00,10.0,SW,12.7,20.7,N/A,,Clear,220,2013-05-15 14:53:00
11:53 AM,64.0,36.0,35,29.97,10.0,SSW,13.8,20.7,N/A,,Overcast,200,2013-05-15 15:53:00
12:53 PM,64.0,32.0,30,29.95,10.0,SSW,13.8,23.0,N/A,,Overcast,210,2013-05-15 16:53:00
1:53 PM,64.9,36.0,34,29.92,10.0,South,17.3,23.0,N/A,,Mostly Cloudy,180,2013-05-15 17:53:00
2:53 PM,63.0,33.1,33,29.88,10.0,South,13.8,21.9,N/A,,Partly Cloudy,170,2013-05-15 18:53:00
3:53 PM,57.9,43.0,58,29.86,10.0,South,12.7,24.2,0.00,Rain,Light Rain,180,2013-05-15 19:53:00
4:53 PM,57.0,52.0,83,29.82,10.0,South,15.0,23.0,0.02,,Mostly Cloudy,190,2013-05-15 20:53:00
5:15 PM,57.2,51.8,82,29.79,10.0,South,10.4,20.7,N/A,,Overcast,180,2013-05-15 21:15:00
5:53 PM,55.9,53.1,90,29.77,10.0,South,12.7,20.7,N/A,,Overcast,170,2013-05-15 21:53:00
6:53 PM,55.9,52.0,87,29.74,10.0,South,9.2,-,N/A,,Overcast,180,2013-05-15 22:53:00
7:53 PM,57.9,52.0,81,29.74,10.0,South,10.4,24.2,N/A,,Overcast,190,2013-05-15 23:53:00
8:53 PM,57.9,53.1,84,29.71,10.0,SSW,10.4,17.3,N/A,,Overcast,210,2013-05-16 00:53:00
9:53 PM,57.0,54.0,89,29.70,10.0,South,8.1,-,N/A,,Mostly Cloudy,190,2013-05-16 01:53:00
10:08 PM,57.2,53.6,88,29.70,10.0,SSW,6.9,-,N/A,,Scattered Clouds,200,2013-05-16 02:08:00
10:53 PM,55.9,54.0,93,29.69,10.0,SW,3.5,-,N/A,,Partly Cloudy,220,2013-05-16 02:53:00
11:53 PM,55.0,54.0,96,29.69,9.0,SSW,4.6,-,N/A,,Clear,210,2013-05-16 03:53:00